Tracking 35274 objects as of 11-Sep-2026
HD Live streaming from Space Station
objects crossing your sky now

STARLINK-34973

Track STARLINK-34973 now!
10-day predictions
STARLINK-34973 is classified as:


NORAD ID: 65250
Int'l Code: 2025-179R
Launch date: August 18, 2025
Source: United States (US)
Launch site: AIR FORCE WESTERN TEST RANGE (AFWTR)
Your satellite tracking list
Your tracking list is empty




NASA's NSSDC Master Catalog

Two Line Element Set (TLE):
1 65250U 25179R   26253.68244324  .00007353  00000-0  22984-3 0  9999
2 65250  97.2810 293.0834 0001739  87.2272 272.9169 15.33446036 59795
Source of the keplerian elements: AFSPC